Location: Unspecified
(0.0000°N, 0.0000°E)
Time: 21:33:16
(UTC+02:00)

HO-68 - Visible Passes

Search period start: 30 June 2016 00:00
Search period end: 10 July 2016 00:00
Orbit: 1193 x 1204 km, 100.1° (Epoch: 30 June)

Date Brightness Start Highest point End Pass type
(mag) Time Alt. Az. Time Alt. Az. Time Alt. Az.
30 Jun ? 21:30:07 24° SSE 21:34:31 60° ENE 21:41:31 10° N visible
30 Jun ? 23:19:34 12° SW 23:21:52 14° WSW 23:25:12 10° WNW visible
01 Jul ? 21:12:53 19° SE 21:17:39 42° ENE 21:24:17 10° N visible
01 Jul ? 23:02:20 17° SW 23:05:02 21° WSW 23:10:06 10° WNW visible
02 Jul ? 20:55:40 13° SE 21:00:48 29° ENE 21:06:48 10° NNE visible
02 Jul ? 22:45:07 22° SW 22:48:12 30° WSW 22:54:15 10° NW visible
03 Jul ? 20:38:59 10° ESE 20:43:58 20° ENE 20:48:56 10° NNE visible
03 Jul ? 22:27:54 27° SSW 22:31:21 43° WSW 22:38:02 10° NW visible
04 Jul ? 22:10:40 29° S 22:14:30 61° WSW 22:21:31 10° NNW visible
05 Jul ? 21:53:27 28° SSE 21:57:38 85° WSW 22:04:48 10° NNW visible
06 Jul ? 21:36:14 24° SSE 21:40:46 69° ENE 21:47:51 10° N visible
06 Jul ? 23:26:03 10° WSW 23:28:05 11° WSW 23:30:08 10° W visible
07 Jul ? 21:19:00 19° SE 21:23:55 49° ENE 21:30:43 10° N visible
07 Jul ? 23:08:27 14° SW 23:11:16 18° WSW 23:15:46 10° WNW visible
08 Jul ? 21:01:47 14° SE 21:07:04 34° ENE 21:13:20 10° NNE visible
08 Jul ? 22:51:14 19° SW 22:54:26 26° WSW 23:00:09 10° NW visible
09 Jul ? 20:44:45 10° SE 20:50:13 24° ENE 20:55:40 10° NNE visible
09 Jul ? 22:34:01 23° SSW 22:37:36 37° WSW 22:44:03 10° NW visible
